• In Russia
  • List of Countries
  • For 7 days
  • Water Temperature
  • Weather Map
  • Weather Widgets
  • user-avatar
    Login

    Hourly Weather Golden Sands

    Today, 18 August, Sunday

    Time Temperature Precipitation Wind Pressure Humidity
    00:00 +19°C° 0 mm 3 mps 760 mmHg 64%
    01:00 +19°C° 0 mm 3 mps 760 mmHg 62%
    02:00 +19°C° 0 mm 4 mps 760 mmHg 59%
    03:00 +19°C° 0 mm 4 mps 760 mmHg 60%
    04:00 +19°C° 0 mm 4 mps 760 mmHg 60%
    05:00 +17°C° 0 mm 5 mps 760 mmHg 61%
    06:00 +20°C° 0 mm 5 mps 760 mmHg 53%
    07:00 +22°C° 0 mm 5 mps 760 mmHg 46%
    08:00 +25°C° 0 mm 5 mps 761 mmHg 39%
    09:00 +27°C° 0 mm 5 mps 761 mmHg 37%
    10:00 +28°C° 0 mm 5 mps 761 mmHg 34%
    11:00 +29°C° 0 mm 4 mps 761 mmHg 32%
    12:00 +29°C° 0 mm 4 mps 761 mmHg 33%
    13:00 +29°C° 0 mm 5 mps 761 mmHg 35%
    14:00 +29°C° 0 mm 5 mps 761 mmHg 36%
    15:00 +29°C° 0 mm 4 mps 761 mmHg 38%
    16:00 +28°C° 0 mm 4 mps 761 mmHg 40%
    17:00 +27°C° 0 mm 4 mps 761 mmHg 42%
    18:00 +26°C° 0 mm 3 mps 761 mmHg 49%
    19:00 +24°C° 0 mm 3 mps 761 mmHg 55%
    20:00 +22°C° 0 mm 3 mps 761 mmHg 62%
    21:00 +21°C° 0 mm 2 mps 761 mmHg 64%
    22:00 +21°C° 0 mm 2 mps 761 mmHg 65%
    23:00 +22°C° 0 mm 1 mps 762 mmHg 67%

    Tomorrow, 19 August, Monday

    Time Temperature Precipitation Wind Pressure Humidity
    00:00 +21°C° 0 mm 1 mps 762 mmHg 67%
    01:00 +21°C° 0 mm 1 mps 761 mmHg 67%
    02:00 +21°C° 0 mm 1 mps 761 mmHg 67%
    03:00 +21°C° 0 mm 1 mps 762 mmHg 66%
    04:00 +20°C° 0 mm 2 mps 762 mmHg 64%
    05:00 +20°C° 0 mm 2 mps 762 mmHg 63%
    06:00 +23°C° 0 mm 2 mps 762 mmHg 54%
    07:00 +25°C° 0 mm 2 mps 762 mmHg 46%
    08:00 +27°C° 0 mm 2 mps 762 mmHg 38%
    09:00 +28°C° 0 mm 2 mps 762 mmHg 37%
    10:00 +29°C° 0 mm 3 mps 763 mmHg 37%
    11:00 +30°C° 0 mm 3 mps 763 mmHg 36%
    12:00 +30°C° 0 mm 3 mps 762 mmHg 37%
    13:00 +30°C° 0 mm 4 mps 762 mmHg 38%
    14:00 +30°C° 0 mm 4 mps 762 mmHg 39%
    15:00 +30°C° 0 mm 4 mps 762 mmHg 40%
    16:00 +29°C° 0 mm 3 mps 762 mmHg 41%
    17:00 +29°C° 0 mm 3 mps 762 mmHg 42%
    18:00 +27°C° 0 mm 3 mps 762 mmHg 51%
    19:00 +25°C° 0 mm 3 mps 762 mmHg 60%
    20:00 +22°C° 0 mm 3 mps 763 mmHg 69%
    21:00 +21°C° 0 mm 3 mps 763 mmHg 72%
    22:00 +21°C° 0 mm 3 mps 763 mmHg 76%
    23:00 +20°C° 0 mm 3 mps 763 mmHg 79%

    Day after tomorrow, 20 August, Tuesday

    Time Temperature Precipitation Wind Pressure Humidity
    00:00 +20°C° 0 mm 3 mps 763 mmHg 80%
    01:00 +20°C° 0 mm 3 mps 763 mmHg 81%
    02:00 +20°C° 0 mm 3 mps 763 mmHg 82%
    03:00 +19°C° 0 mm 3 mps 763 mmHg 83%
    04:00 +19°C° 0 mm 3 mps 763 mmHg 84%
    05:00 +19°C° 0 mm 4 mps 763 mmHg 85%
    06:00 +21°C° 0 mm 5 mps 763 mmHg 76%
    07:00 +23°C° 0 mm 5 mps 763 mmHg 66%
    08:00 +24°C° 0 mm 6 mps 763 mmHg 57%
    09:00 +27°C° 0 mm 6 mps 763 mmHg 50%
    10:00 +29°C° 0 mm 6 mps 763 mmHg 43%
    11:00 +32°C° 0 mm 7 mps 763 mmHg 36%
    12:00 +32°C° 0 mm 7 mps 763 mmHg 36%
    13:00 +32°C° 0 mm 7 mps 763 mmHg 36%
    14:00 +32°C° 0 mm 7 mps 762 mmHg 36%
    15:00 +32°C° 0 mm 7 mps 762 mmHg 39%
    16:00 +30°C° 0 mm 7 mps 762 mmHg 41%
    17:00 +30°C° 0 mm 7 mps 762 mmHg 44%
    18:00 +28°C° 0 mm 7 mps 762 mmHg 54%
    19:00 +26°C° 0 mm 6 mps 762 mmHg 64%
    20:00 +23°C° 0 mm 6 mps 762 mmHg 74%
    21:00 +23°C° 0 mm 5 mps 762 mmHg 75%
    22:00 +23°C° 0 mm 5 mps 762 mmHg 75%
    23:00 +23°C° 0 mm 4 mps 762 mmHg 75%

    21 August, Wednesday

    Time Temperature Precipitation Wind Pressure Humidity
    00:00 +23°C° 0 mm 5 mps 762 mmHg 72%
    01:00 +25°C° 0 mm 5 mps 761 mmHg 69%
    02:00 +24°C° 0 mm 6 mps 761 mmHg 66%
    03:00 +24°C° 0 mm 7 mps 761 mmHg 66%
    04:00 +24°C° 0 mm 7 mps 760 mmHg 66%
    05:00 +23°C° 0 mm 8 mps 760 mmHg 66%
    06:00 +26°C° 0 mm 8 mps 760 mmHg 62%
    07:00 +28°C° 0 mm 8 mps 761 mmHg 58%
    08:00 +29°C° 0 mm 8 mps 761 mmHg 54%
    09:00 +32°C° 0 mm 8 mps 761 mmHg 52%
    10:00 +33°C° 0 mm 8 mps 761 mmHg 50%
    11:00 +34°C° 0 mm 8 mps 760 mmHg 49%
    12:00 +34°C° 0.1 mm 8 mps 760 mmHg 48%
    13:00 +34°C° 0.1 mm 8 mps 760 mmHg 48%
    14:00 +34°C° 0.1 mm 7 mps 760 mmHg 48%
    15:00 +33°C° 0.1 mm 7 mps 760 mmHg 49%
    16:00 +33°C° 0.1 mm 7 mps 760 mmHg 50%
    17:00 +32°C° 0.1 mm 6 mps 760 mmHg 51%
    18:00 +29°C° 0.2 mm 5 mps 759 mmHg 58%
    19:00 +27°C° 0.2 mm 4 mps 759 mmHg 64%
    20:00 +26°C° 0.2 mm 3 mps 759 mmHg 71%
    21:00 +26°C° 0 mm 3 mps 759 mmHg 69%
    22:00 +25°C° 0 mm 3 mps 759 mmHg 67%
    23:00 +25°C° 0 mm 3 mps 759 mmHg 65%

    22 August, Thursday

    Time Temperature Precipitation Wind Pressure Humidity
    00:00 +25°C° 0 mm 4 mps 759 mmHg 64%
    01:00 +26°C° 0 mm 5 mps 759 mmHg 63%
    02:00 +26°C° 0 mm 6 mps 758 mmHg 63%
    03:00 +24°C° 0 mm 7 mps 758 mmHg 64%
    04:00 +24°C° 0 mm 8 mps 758 mmHg 65%
    05:00 +24°C° 0 mm 9 mps 758 mmHg 66%
    06:00 +26°C° 0.2 mm 9 mps 758 mmHg 59%
    07:00 +27°C° 0.2 mm 10 mps 759 mmHg 53%
    08:00 +28°C° 0.2 mm 10 mps 759 mmHg 47%
    09:00 +31°C° 0.2 mm 10 mps 759 mmHg 45%
    10:00 +32°C° 0.2 mm 9 mps 759 mmHg 43%
    11:00 +34°C° 0.2 mm 9 mps 759 mmHg 41%
    12:00 +35°C° 0 mm 8 mps 759 mmHg 38%
    13:00 +36°C° 0 mm 7 mps 758 mmHg 35%
    14:00 +38°C° 0 mm 6 mps 758 mmHg 33%
    15:00 +36°C° 0 mm 6 mps 758 mmHg 37%
    16:00 +35°C° 0 mm 6 mps 758 mmHg 41%
    17:00 +34°C° 0 mm 6 mps 758 mmHg 46%
    18:00 +32°C° 0.1 mm 7 mps 758 mmHg 52%
    19:00 +29°C° 0.1 mm 7 mps 758 mmHg 59%
    20:00 +27°C° 0.1 mm 7 mps 758 mmHg 66%
    21:00 +27°C° 0 mm 8 mps 758 mmHg 65%
    22:00 +27°C° 0 mm 9 mps 759 mmHg 63%
    23:00 +27°C° 0 mm 10 mps 759 mmHg 62%

    23 August, Friday

    Time Temperature Precipitation Wind Pressure Humidity
    00:00 +26°C° 0 mm 11 mps 759 mmHg 64%
    01:00 +26°C° 0 mm 11 mps 759 mmHg 66%
    02:00 +24°C° 0 mm 12 mps 758 mmHg 69%
    03:00 +24°C° 0 mm 12 mps 759 mmHg 72%
    04:00 +23°C° 0 mm 12 mps 759 mmHg 75%
    05:00 +22°C° 0 mm 11 mps 759 mmHg 78%
    06:00 +23°C° 0 mm 11 mps 759 mmHg 74%
    07:00 +24°C° 0 mm 11 mps 759 mmHg 69%
    08:00 +26°C° 0 mm 11 mps 759 mmHg 64%
    09:00 +28°C° 0 mm 10 mps 759 mmHg 58%
    10:00 +31°C° 0 mm 10 mps 759 mmHg 51%
    11:00 +33°C° 0 mm 9 mps 759 mmHg 44%
    12:00 +34°C° 0 mm 9 mps 759 mmHg 42%
    13:00 +35°C° 0 mm 9 mps 759 mmHg 39%
    14:00 +37°C° 0 mm 9 mps 759 mmHg 37%
    15:00 +37°C° 0 mm 9 mps 759 mmHg 37%
    16:00 +35°C° 0 mm 8 mps 758 mmHg 38%
    17:00 +35°C° 0 mm 7 mps 758 mmHg 39%
    18:00 +34°C° 0 mm 7 mps 758 mmHg 43%
    19:00 +32°C° 0 mm 6 mps 759 mmHg 47%
    20:00 +30°C° 0 mm 6 mps 759 mmHg 51%
    21:00 +29°C° 0 mm 8 mps 759 mmHg 55%
    22:00 +28°C° 0 mm 9 mps 759 mmHg 59%
    23:00 +27°C° 0 mm 11 mps 760 mmHg 62%
    Show more